FW3683 Weather Reports


time (UTC)temp
F
wind
direction
speed
knots
gust
knots
rain 1hr
in
rain 24hr
in
rain mn
in
humidity
%
barometer
mb
20260905143550 91 66 0.0 0.0 0.00 0.00 0.00 64 1017.5
20260905143045 91 8 0.0 0.0 0.00 0.00 0.00 65 1017.6
20260905142043 89 8 0.0 0.0 0.00 0.00 0.00 67 1017.6
20260905141542 88 8 0.0 0.0 0.00 0.00 0.00 70 1017.5
20260905141040 86 8 0.0 0.0 0.00 0.00 0.00 73 1017.6
20260905140540 87 58 0.0 0.0 0.00 0.00 0.00 71 1017.6
20260905140046 85 60 0.0 0.0 0.00 0.00 0.00 73 1017.6
20260905135541 84 60 0.0 0.0 0.00 0.00 0.00 75 1017.7
20260905135037 82 73 0.0 0.0 0.00 0.00 0.00 76 1017.7
20260905134546 82 74 0.0 0.0 0.00 0.00 0.00 76 1017.7
20260905134037 84 19 0.0 0.0 0.00 0.00 0.00 75 1017.9
20260905133533 84 15 0.0 0.0 0.00 0.00 0.00 76 1018.1
20260905133034 83 347 0.0 0.0 0.00 0.00 0.00 76 1017.8
20260905132035 81 339 0.0 0.0 0.00 0.00 0.00 77 1018.1
20260905131534 80 340 0.0 0.0 0.00 0.00 0.00 77 1018.2
20260905131034 79 340 0.0 0.0 0.00 0.00 0.00 76 1018.3
20260905130533 78 340 0.0 0.0 0.00 0.00 0.00 74 1018.3
20260905130039 77 340 0.0 0.0 0.00 0.00 0.00 68 1018.4
20260905125533 76 340 0.0 0.0 0.00 0.00 0.00 62 1018.4
20260905125034 75 340 0.0 0.0 0.00 0.00 0.00 62 1018.4
20260905124533 75 340 0.0 0.0 0.00 0.00 0.00 64 1018.4
20260905124032 74 340 0.0 0.0 0.00 0.00 0.00 65 1018.4
20260905123532 73 340 0.0 0.0 0.00 0.00 0.00 65 1018.3
20260905123032 71 340 0.0 0.0 0.00 0.00 0.00 66 1018.4
20260905122034 71 340 0.0 0.0 0.00 0.00 0.00 66 1018.5
20260905121542 71 340 0.0 0.0 0.00 0.00 0.00 67 1018.3
20260905121036 70 340 0.0 0.0 0.00 0.00 0.00 67 1018.3
20260905120533 70 340 0.0 0.0 0.00 0.00 0.00 66 1018.3
20260905120033 70 340 0.0 0.0 0.00 0.00 0.00 67 1018.2
20260905115537 69 340 0.0 0.0 0.00 0.00 0.00 67 1018.2
20260905115035 69 340 0.0 0.0 0.00 0.00 0.00 67 1018.2
20260905114541 69 340 0.0 0.0 0.00 0.00 0.00 67 1018.1
20260905114033 69 340 0.0 0.0 0.00 0.00 0.00 67 1018.0
20260905113533 69 340 0.0 0.0 0.00 0.00 0.00 66 1017.9
20260905113032 69 323 0.0 0.0 0.00 0.00 0.00 67 1017.9
20260905112031 69 323 0.0 0.0 0.00 0.00 0.00 66 1017.8
20260905111534 69 323 0.0 0.0 0.00 0.00 0.00 66 1017.7
20260905111031 69 323 0.0 0.0 0.00 0.00 0.00 66 1017.5
20260905110531 69 323 0.0 0.0 0.00 0.00 0.00 66 1017.4
20260905110032 69 323 0.0 0.0 0.00 0.00 0.00 66 1017.3
20260905105531 69 7 0.0 0.0 0.00 0.00 0.00 66 1017.4
20260905105031 69 7 0.0 0.0 0.00 0.00 0.00 66 1017.3
20260905104529 69 229 0.0 0.0 0.00 0.00 0.00 66 1017.1
20260905104032 69 229 0.0 0.0 0.00 0.00 0.00 66 1017.0
20260905103529 69 229 0.0 0.0 0.00 0.00 0.00 66 1017.1
20260905103030 70 229 0.0 0.0 0.00 0.00 0.00 66 1017.0
20260905102029 70 229 0.0 0.0 0.00 0.00 0.00 66 1017.1
20260905101528 69 229 0.0 0.0 0.00 0.00 0.00 66 1016.9
20260905101028 69 229 0.0 0.0 0.00 0.00 0.00 66 1017.0
20260905100528 69 229 0.0 0.0 0.00 0.00 0.00 65 1016.9
20260905100028 69 229 0.0 0.0 0.00 0.00 0.00 65 1016.9
20260905095528 69 229 0.0 0.0 0.00 0.00 0.00 65 1016.9
20260905095028 69 229 0.0 0.0 0.00 0.00 0.00 65 1016.9
20260905094527 69 229 0.0 0.0 0.00 0.00 0.00 65 1017.0
20260905094029 70 229 0.0 0.0 0.00 0.00 0.00 65 1017.1
20260905093526 70 229 0.0 0.0 0.00 0.00 0.00 65 1017.0
20260905093026 70 229 0.0 0.0 0.00 0.00 0.00 65 1017.0
20260905092029 70 229 0.0 0.0 0.00 0.00 0.00 65 1016.9
20260905091531 70 229 0.0 0.0 0.00 0.00 0.00 65 1017.0
20260905091024 70 229 0.0 0.0 0.00 0.00 0.00 65 1017.0
20260905090525 70 229 0.0 0.0 0.00 0.00 0.00 65 1017.0
20260905090026 70 229 0.0 0.0 0.00 0.00 0.00 65 1017.1
20260905085524 70 229 0.0 0.0 0.00 0.00 0.00 64 1017.0
20260905085023 70 229 0.0 0.0 0.00 0.00 0.00 64 1017.0
20260905084522 70 229 0.0 0.0 0.00 0.00 0.00 64 1017.1
20260905084021 70 229 0.0 0.0 0.00 0.00 0.00 64 1017.2
20260905083521 70 228 0.0 0.0 0.00 0.00 0.00 64 1017.4
20260905083019 70 229 0.0 0.0 0.00 0.00 0.00 64 1017.4
20260905082020 70 229 0.0 0.0 0.00 0.00 0.00 64 1017.6
20260905081519 71 229 0.0 0.0 0.00 0.00 0.00 64 1017.4
20260905081018 71 229 0.0 0.0 0.00 0.00 0.00 64 1017.5
20260905080518 71 229 0.0 0.0 0.00 0.00 0.00 64 1017.6
20260905080019 71 229 0.0 0.0 0.00 0.00 0.00 64 1017.6
20260905075518 71 229 0.0 0.0 0.00 0.00 0.00 64 1017.7
20260905075017 71 229 0.0 0.0 0.00 0.00 0.00 64 1017.8
20260905074517 71 229 0.0 0.0 0.00 0.00 0.00 64 1017.8
20260905074017 71 229 0.0 0.0 0.00 0.00 0.00 63 1017.8
20260905073521 71 229 0.0 0.0 0.00 0.00 0.00 63 1017.7
20260905073018 71 229 0.0 0.0 0.00 0.00 0.00 63 1017.8
20260905072020 71 229 0.0 0.0 0.00 0.00 0.00 63 1017.9
20260905071517 71 229 0.0 0.0 0.00 0.00 0.00 63 1017.9
20260905071017 71 229 0.0 0.0 0.00 0.00 0.00 63 1018.0
20260905070517 71 229 0.0 0.0 0.00 0.00 0.00 63 1018.1
20260905070017 72 229 0.0 0.0 0.00 0.00 0.00 63 1018.1
20260905065517 72 229 0.0 0.0 0.00 0.00 0.00 63 1018.2
20260905065015 72 229 0.0 0.0 0.00 0.00 0.00 63 1018.1
20260905064516 72 229 0.0 0.0 0.00 0.00 0.00 63 1018.3
20260905064020 72 229 0.0 0.0 0.00 0.00 0.00 63 1018.3
20260905063515 72 229 0.0 0.0 0.00 0.00 0.00 62 1018.2
20260905063017 72 229 0.0 0.0 0.00 0.00 0.00 62 1018.3
20260905062012 72 229 0.0 0.0 0.00 0.00 0.00 62 1018.4
20260905061527 72 228 0.0 0.0 0.00 0.00 0.00 62 1018.4
20260905061013 72 229 0.0 0.0 0.00 0.00 0.00 62 1018.6
20260905060512 72 229 0.0 0.0 0.00 0.00 0.00 62 1018.7
20260905060011 72 229 0.0 0.0 0.00 0.00 0.00 62 1018.7
20260905055513 73 229 0.0 0.0 0.00 0.00 0.00 62 1018.7
20260905055011 73 229 0.0 0.0 0.00 0.00 0.00 62 1018.9
20260905054510 73 229 0.0 0.0 0.00 0.00 0.00 62 1018.9
20260905054010 73 229 0.0 0.0 0.00 0.00 0.00 62 1019.0
20260905053513 73 229 0.0 0.0 0.00 0.00 0.00 62 1018.9
20260905053014 73 229 0.0 0.0 0.00 0.00 0.00 62 1018.8
20260905052010 73 229 0.0 0.0 0.00 0.00 0.00 62 1018.8
20260905051517 73 229 0.0 0.0 0.00 0.00 0.00 62 1018.8
20260905051009 73 229 0.0 0.0 0.00 0.00 0.00 62 1018.8
20260905050509 73 271 0.0 0.0 0.00 0.00 0.00 62 1018.9
20260905050010 73 271 0.0 0.0 0.00 0.00 0.00 62 1018.8
20260905045509 73 271 0.0 0.0 0.00 0.00 0.00 62 1018.8
20260905045009 73 189 0.0 0.0 0.00 0.00 0.00 62 1018.8
20260905044509 73 240 0.0 0.0 0.00 0.00 0.00 62 1018.7
20260905044009 73 212 0.0 0.0 0.00 0.00 0.00 62 1018.8
20260905043508 73 212 0.0 0.0 0.00 0.00 0.00 62 1018.8
20260905043008 73 212 0.0 0.0 0.00 0.00 0.00 62 1018.8
20260905042009 73 212 0.0 0.0 0.00 0.00 0.00 62 1018.7
20260905041512 73 212 0.0 0.0 0.00 0.00 0.00 62 1018.7
20260905041007 73 212 0.0 0.0 0.00 0.00 0.00 62 1018.8
20260905040508 74 212 0.0 0.0 0.00 0.00 0.00 62 1018.7
20260905040007 74 212 0.0 0.0 0.00 0.00 0.00 62 1018.6
20260905035507 74 212 0.0 0.0 0.00 0.00 0.00 62 1018.8
20260905035007 74 212 0.0 0.0 0.00 0.00 0.00 62 1018.8
20260905034507 74 212 0.0 0.0 0.00 0.00 0.00 62 1018.7
20260905034007 74 212 0.0 0.0 0.00 0.00 0.00 62 1018.6
20260905033506 74 212 0.0 0.0 0.00 0.00 0.00 62 1018.6
20260905033006 74 212 0.0 0.0 0.00 0.00 0.00 62 1018.4